Time,TemperatureF,DewpointF,PressureIn,WindDirection,WindDirectionDegrees,WindSpeedMPH,WindSpeedGustMPH,Humidity,HourlyPrecipIn,Conditions,Clouds,dailyrainin,SoftwareType,DateUTC
2013-09-18 00:04:00,59.0,58.5,29.91,South,180,5.4,8.3,98,0.00,,,0.00,meteobridge,2013-09-18 05:04:00,
2013-09-18 00:10:00,59.0,58.5,29.91,SE,135,6.0,6.9,98,0.00,,,0.00,meteobridge,2013-09-18 05:10:00,
2013-09-18 00:16:00,59.0,58.5,29.91,South,180,6.0,6.0,98,0.00,,,0.00,meteobridge,2013-09-18 05:16:00,
2013-09-18 00:21:00,59.0,58.5,29.91,SE,135,6.0,7.6,98,0.00,,,0.00,meteobridge,2013-09-18 05:21:00,
2013-09-18 00:27:00,59.2,58.6,29.91,SE,135,5.4,5.4,98,0.00,,,0.00,meteobridge,2013-09-18 05:27:00,
2013-09-18 00:31:00,59.2,58.8,29.90,SE,135,8.3,8.3,99,0.01,,,0.01,meteobridge,2013-09-18 05:31:00,
2013-09-18 00:37:00,59.2,58.8,29.90,ESE,113,9.8,9.8,99,0.01,,,0.01,meteobridge,2013-09-18 05:37:00,
2013-09-18 00:43:00,59.4,59.0,29.90,SE,135,6.9,9.8,99,0.01,,,0.01,meteobridge,2013-09-18 05:43:00,
2013-09-18 00:48:00,59.4,59.0,29.90,SE,135,6.9,7.6,99,0.01,,,0.01,meteobridge,2013-09-18 05:48:00,
2013-09-18 00:54:00,59.5,59.2,29.89,SE,135,10.7,10.7,99,0.01,,,0.01,meteobridge,2013-09-18 05:54:00,
2013-09-18 00:59:00,59.5,59.2,29.90,South,180,5.4,7.6,99,0.01,,,0.01,meteobridge,2013-09-18 05:59:00,
2013-09-18 01:05:00,59.7,59.4,29.89,South,180,8.3,8.3,99,0.01,,,0.01,meteobridge,2013-09-18 06:05:00,
2013-09-18 01:11:00,59.7,59.4,29.89,SE,135,8.3,9.2,99,0.01,,,0.01,meteobridge,2013-09-18 06:11:00,
2013-09-18 01:16:00,59.7,59.4,29.89,SSE,158,13.0,13.0,99,0.01,,,0.01,meteobridge,2013-09-18 06:16:00,
2013-09-18 01:21:00,59.7,59.4,29.89,SE,135,7.6,9.2,99,0.01,,,0.01,meteobridge,2013-09-18 06:21:00,
2013-09-18 01:27:00,59.9,59.5,29.88,SSE,158,7.6,8.3,99,0.01,,,0.01,meteobridge,2013-09-18 06:27:00,
2013-09-18 01:33:00,59.9,59.5,29.88,SSE,158,9.2,9.8,99,0.00,,,0.01,meteobridge,2013-09-18 06:33:00,
2013-09-18 01:38:00,59.9,59.5,29.88,SSE,158,5.4,9.2,99,0.00,,,0.01,meteobridge,2013-09-18 06:38:00,
2013-09-18 01:44:00,59.9,59.4,29.88,South,180,9.2,9.2,98,0.00,,,0.01,meteobridge,2013-09-18 06:44:00,
2013-09-18 01:49:00,59.9,59.4,29.88,South,180,7.6,7.6,98,0.00,,,0.01,meteobridge,2013-09-18 06:49:00,
2013-09-18 01:55:00,60.1,59.5,29.88,SSE,158,7.6,9.2,98,0.00,,,0.01,meteobridge,2013-09-18 06:55:00,
2013-09-18 02:01:00,60.1,59.5,29.87,South,180,6.9,6.9,98,0.00,,,0.01,meteobridge,2013-09-18 07:01:00,
2013-09-18 02:06:00,60.1,59.5,29.88,SE,135,6.0,7.6,98,0.00,,,0.01,meteobridge,2013-09-18 07:06:00,
2013-09-18 02:12:00,60.1,59.5,29.87,SE,135,9.2,9.2,98,0.00,,,0.01,meteobridge,2013-09-18 07:12:00,
2013-09-18 02:18:00,60.1,59.5,29.87,South,180,5.4,6.0,98,0.00,,,0.01,meteobridge,2013-09-18 07:18:00,
2013-09-18 02:23:00,60.1,59.5,29.87,SSE,158,9.8,9.8,98,0.00,,,0.01,meteobridge,2013-09-18 07:23:00,
2013-09-18 02:29:00,60.3,59.7,29.86,SE,135,9.2,9.2,98,0.00,,,0.01,meteobridge,2013-09-18 07:29:00,
2013-09-18 02:35:00,60.3,59.7,29.86,South,180,8.3,8.3,98,0.00,,,0.01,meteobridge,2013-09-18 07:35:00,
2013-09-18 02:40:00,60.3,59.7,29.86,South,180,6.0,6.0,98,0.00,,,0.01,meteobridge,2013-09-18 07:40:00,
2013-09-18 02:46:00,60.3,59.7,29.86,SE,135,6.0,6.9,98,0.00,,,0.01,meteobridge,2013-09-18 07:46:00,
2013-09-18 02:51:00,60.3,59.9,29.85,SSE,158,6.0,9.2,99,0.00,,,0.01,meteobridge,2013-09-18 07:51:00,
2013-09-18 02:57:00,60.3,59.9,29.85,SE,135,5.4,6.9,99,0.00,,,0.01,meteobridge,2013-09-18 07:57:00,
2013-09-18 03:03:00,60.3,59.9,29.85,SE,135,4.5,4.5,99,0.00,,,0.01,meteobridge,2013-09-18 08:03:00,
2013-09-18 03:08:00,60.4,60.1,29.85,SSE,158,6.0,6.0,99,0.00,,,0.01,meteobridge,2013-09-18 08:08:00,
2013-09-18 03:14:00,60.4,60.1,29.85,SSE,158,7.6,7.6,99,0.00,,,0.01,meteobridge,2013-09-18 08:14:00,
2013-09-18 03:20:00,60.6,60.3,29.85,SSE,158,3.8,6.0,99,0.00,,,0.01,meteobridge,2013-09-18 08:20:00,
2013-09-18 03:25:00,60.6,60.3,29.84,SSE,158,8.3,8.3,99,0.00,,,0.01,meteobridge,2013-09-18 08:25:00,
2013-09-18 03:31:00,60.8,60.3,29.85,SSE,158,5.4,9.2,98,0.00,,,0.01,meteobridge,2013-09-18 08:31:00,
2013-09-18 03:37:00,61.0,60.4,29.84,SE,135,7.6,12.1,98,0.00,,,0.01,meteobridge,2013-09-18 08:37:00,
2013-09-18 03:42:00,61.0,60.4,29.84,South,180,10.7,10.7,98,0.00,,,0.01,meteobridge,2013-09-18 08:42:00,
2013-09-18 03:48:00,61.0,60.4,29.84,SE,135,11.4,11.4,98,0.00,,,0.01,meteobridge,2013-09-18 08:48:00,
2013-09-18 03:54:00,61.2,60.6,29.84,SSE,158,7.6,10.7,98,0.00,,,0.01,meteobridge,2013-09-18 08:54:00,
2013-09-18 03:59:00,61.2,60.6,29.84,SSE,158,7.6,7.6,98,0.00,,,0.01,meteobridge,2013-09-18 08:59:00,
2013-09-18 04:05:00,61.2,60.6,29.83,South,180,8.3,8.3,98,0.00,,,0.01,meteobridge,2013-09-18 09:05:00,
2013-09-18 04:10:00,61.2,60.6,29.83,SSE,158,9.8,9.8,98,0.00,,,0.01,meteobridge,2013-09-18 09:10:00,
2013-09-18 04:16:00,61.2,60.6,29.83,South,180,9.2,12.1,98,0.00,,,0.01,meteobridge,2013-09-18 09:16:00,
2013-09-18 04:22:00,61.2,60.6,29.83,SE,135,6.9,7.6,98,0.00,,,0.01,meteobridge,2013-09-18 09:22:00,
2013-09-18 04:27:00,61.2,60.6,29.82,SE,135,9.8,9.8,98,0.00,,,0.01,meteobridge,2013-09-18 09:27:00,
2013-09-18 04:33:00,61.0,60.4,29.82,SE,135,6.0,9.8,98,0.00,,,0.01,meteobridge,2013-09-18 09:33:00,
2013-09-18 04:39:00,61.0,60.4,29.82,South,180,6.9,8.3,98,0.00,,,0.01,meteobridge,2013-09-18 09:39:00,
2013-09-18 04:44:00,61.0,60.4,29.81,SSE,158,7.6,7.6,98,0.00,,,0.01,meteobridge,2013-09-18 09:44:00,
2013-09-18 04:50:00,61.0,60.4,29.81,SE,135,6.9,6.9,98,0.00,,,0.01,meteobridge,2013-09-18 09:50:00,
2013-09-18 04:56:00,61.0,60.4,29.81,SE,135,6.0,7.6,98,0.00,,,0.01,meteobridge,2013-09-18 09:56:00,
2013-09-18 05:01:00,61.0,60.4,29.81,SE,135,7.6,7.6,98,0.00,,,0.01,meteobridge,2013-09-18 10:01:00,
2013-09-18 05:07:00,61.0,60.4,29.81,South,180,7.6,9.8,98,0.00,,,0.01,meteobridge,2013-09-18 10:07:00,
2013-09-18 05:12:00,61.0,60.4,29.81,SSE,158,7.6,10.7,98,0.00,,,0.01,meteobridge,2013-09-18 10:12:00,
2013-09-18 05:18:00,61.0,60.4,29.80,SE,135,7.6,7.6,98,0.00,,,0.01,meteobridge,2013-09-18 10:18:00,
2013-09-18 05:24:00,61.0,60.4,29.81,South,180,6.9,7.6,98,0.00,,,0.01,meteobridge,2013-09-18 10:24:00,
2013-09-18 05:29:00,61.0,60.4,29.81,SE,135,6.0,6.0,98,0.00,,,0.01,meteobridge,2013-09-18 10:29:00,
2013-09-18 05:35:00,61.2,60.6,29.81,SSE,158,4.5,5.4,98,0.00,,,0.01,meteobridge,2013-09-18 10:35:00,
2013-09-18 05:41:00,61.2,60.6,29.81,SE,135,5.4,5.4,98,0.00,,,0.01,meteobridge,2013-09-18 10:41:00,
2013-09-18 05:46:00,61.2,60.6,29.81,SE,135,4.5,5.4,98,0.00,,,0.01,meteobridge,2013-09-18 10:46:00,
2013-09-18 05:51:00,61.2,60.6,29.80,SE,135,6.0,7.6,98,0.00,,,0.01,meteobridge,2013-09-18 10:51:00,
2013-09-18 05:57:00,61.3,60.8,29.80,SE,135,6.0,6.0,98,0.00,,,0.01,meteobridge,2013-09-18 10:57:00,
2013-09-18 06:03:00,61.3,60.8,29.80,SE,135,4.5,6.9,98,0.00,,,0.01,meteobridge,2013-09-18 11:03:00,
2013-09-18 06:08:00,61.3,60.8,29.80,SE,135,5.4,6.0,98,0.00,,,0.01,meteobridge,2013-09-18 11:08:00,
2013-09-18 06:14:00,61.3,60.8,29.80,SE,135,7.6,9.8,98,0.00,,,0.01,meteobridge,2013-09-18 11:14:00,
2013-09-18 06:20:00,61.5,61.0,29.80,SE,135,7.6,7.6,98,0.00,,,0.01,meteobridge,2013-09-18 11:20:00,
2013-09-18 06:25:00,61.5,61.0,29.80,SE,135,7.6,7.6,98,0.00,,,0.01,meteobridge,2013-09-18 11:25:00,
2013-09-18 06:31:00,61.5,61.0,29.80,SE,135,5.4,6.9,98,0.00,,,0.01,meteobridge,2013-09-18 11:31:00,
2013-09-18 06:37:00,61.7,61.2,29.79,SE,135,8.3,9.2,98,0.01,,,0.02,meteobridge,2013-09-18 11:37:00,
2013-09-18 06:42:00,61.7,61.2,29.79,SE,135,8.3,8.3,98,0.01,,,0.02,meteobridge,2013-09-18 11:42:00,
2013-09-18 06:48:00,61.9,61.3,29.79,SE,135,8.3,8.3,98,0.01,,,0.02,meteobridge,2013-09-18 11:48:00,
2013-09-18 06:54:00,61.9,61.3,29.79,SE,135,7.6,7.6,98,0.01,,,0.02,meteobridge,2013-09-18 11:54:00,
2013-09-18 06:59:00,62.1,61.5,29.79,South,180,9.8,9.8,98,0.01,,,0.02,meteobridge,2013-09-18 11:59:00,
2013-09-18 07:05:00,62.1,61.5,29.79,SE,135,7.6,8.3,98,0.01,,,0.02,meteobridge,2013-09-18 12:05:00,
2013-09-18 07:10:00,62.2,61.7,29.79,SE,135,6.9,9.2,98,0.01,,,0.02,meteobridge,2013-09-18 12:10:00,
2013-09-18 07:16:00,62.2,61.7,29.79,SE,135,8.3,8.3,98,0.01,,,0.02,meteobridge,2013-09-18 12:16:00,
2013-09-18 07:22:00,62.4,61.9,29.80,SE,135,8.3,9.2,98,0.01,,,0.02,meteobridge,2013-09-18 12:22:00,
2013-09-18 07:27:00,62.6,61.7,29.80,SE,135,8.3,8.3,97,0.01,,,0.02,meteobridge,2013-09-18 12:27:00,
2013-09-18 07:33:00,62.6,61.7,29.80,SE,135,9.2,9.2,97,0.01,,,0.02,meteobridge,2013-09-18 12:33:00,
2013-09-18 07:39:00,62.6,61.7,29.80,SE,135,9.2,9.2,97,0.00,,,0.02,meteobridge,2013-09-18 12:39:00,
2013-09-18 07:44:00,62.8,61.9,29.79,SE,135,9.2,9.2,97,0.00,,,0.02,meteobridge,2013-09-18 12:44:00,
2013-09-18 07:50:00,63.0,62.1,29.80,SE,135,4.5,7.6,97,0.00,,,0.02,meteobridge,2013-09-18 12:50:00,
2013-09-18 07:56:00,63.0,62.1,29.79,SE,135,6.0,9.2,97,0.00,,,0.02,meteobridge,2013-09-18 12:56:00,
2013-09-18 08:01:00,63.1,62.2,29.79,South,180,6.0,6.9,97,0.00,,,0.02,meteobridge,2013-09-18 13:01:00,
2013-09-18 08:07:00,63.1,62.2,29.79,SE,135,7.6,7.6,97,0.00,,,0.02,meteobridge,2013-09-18 13:07:00,
2013-09-18 08:12:00,63.5,62.6,29.79,ESE,113,6.9,7.6,97,0.00,,,0.02,meteobridge,2013-09-18 13:12:00,
2013-09-18 08:18:00,63.7,62.8,29.80,SE,135,6.9,7.6,97,0.00,,,0.02,meteobridge,2013-09-18 13:18:00,
2013-09-18 08:23:00,63.9,63.0,29.79,South,180,8.3,10.7,97,0.00,,,0.02,meteobridge,2013-09-18 13:23:00,
2013-09-18 08:29:00,64.0,63.1,29.80,SSE,158,6.9,10.7,97,0.00,,,0.02,meteobridge,2013-09-18 13:29:00,
2013-09-18 08:34:00,64.2,63.3,29.80,SE,135,6.9,9.2,97,0.00,,,0.02,meteobridge,2013-09-18 13:34:00,
2013-09-18 08:39:00,64.2,63.3,29.80,South,180,7.6,9.2,97,0.00,,,0.02,meteobridge,2013-09-18 13:39:00,
2013-09-18 08:45:00,64.4,64.0,29.79,SSE,158,9.2,10.7,99,0.00,,,0.02,meteobridge,2013-09-18 13:45:00,
2013-09-18 08:51:00,64.6,64.2,29.79,South,180,7.6,7.6,99,0.00,,,0.02,meteobridge,2013-09-18 13:51:00,
2013-09-18 08:56:00,64.8,64.4,29.80,SE,135,7.6,9.2,99,0.00,,,0.02,meteobridge,2013-09-18 13:56:00,
2013-09-18 09:02:00,64.9,64.6,29.80,SSE,158,5.4,6.9,99,0.00,,,0.02,meteobridge,2013-09-18 14:02:00,
2013-09-18 09:07:00,64.9,64.6,29.80,SE,135,6.0,9.2,99,0.00,,,0.02,meteobridge,2013-09-18 14:07:00,
2013-09-18 09:13:00,65.1,64.8,29.80,SE,135,9.8,9.8,99,0.00,,,0.02,meteobridge,2013-09-18 14:13:00,
2013-09-18 09:19:00,65.1,64.8,29.80,South,180,8.3,8.3,99,0.00,,,0.02,meteobridge,2013-09-18 14:19:00,
2013-09-18 09:24:00,65.3,64.9,29.80,SE,135,3.8,6.9,99,0.00,,,0.02,meteobridge,2013-09-18 14:24:00,
2013-09-18 09:30:00,65.5,65.1,29.80,South,180,7.6,11.4,99,0.00,,,0.02,meteobridge,2013-09-18 14:30:00,
2013-09-18 09:35:00,65.5,65.1,29.80,SE,135,9.2,9.2,99,0.00,,,0.02,meteobridge,2013-09-18 14:35:00,
2013-09-18 09:41:00,65.7,65.3,29.80,South,180,8.3,8.3,99,0.00,,,0.02,meteobridge,2013-09-18 14:41:00,
2013-09-18 09:46:00,65.7,65.3,29.80,South,180,9.8,9.8,99,0.00,,,0.02,meteobridge,2013-09-18 14:46:00,
2013-09-18 09:51:00,65.8,65.5,29.80,South,180,9.2,9.2,99,0.00,,,0.02,meteobridge,2013-09-18 14:51:00,
2013-09-18 09:57:00,65.8,65.5,29.80,South,180,6.9,7.6,99,0.00,,,0.02,meteobridge,2013-09-18 14:57:00,
2013-09-18 10:02:00,65.8,65.5,29.79,SE,135,7.6,7.6,99,0.00,,,0.02,meteobridge,2013-09-18 15:02:00,
2013-09-18 10:07:00,65.8,65.5,29.79,SE,135,6.9,9.2,99,0.00,,,0.02,meteobridge,2013-09-18 15:07:00,
2013-09-18 10:13:00,66.2,65.8,29.79,South,180,8.3,9.8,99,0.00,,,0.02,meteobridge,2013-09-18 15:13:00,
2013-09-18 10:18:00,66.2,65.8,29.79,South,180,9.2,10.7,99,0.00,,,0.02,meteobridge,2013-09-18 15:18:00,
2013-09-18 10:24:00,66.6,66.2,29.78,South,180,11.4,11.4,99,0.00,,,0.02,meteobridge,2013-09-18 15:24:00,
2013-09-18 10:29:00,66.7,66.4,29.78,South,180,6.9,9.2,99,0.00,,,0.02,meteobridge,2013-09-18 15:29:00,
2013-09-18 10:35:00,67.1,66.6,29.79,South,180,9.2,9.2,98,0.00,,,0.02,meteobridge,2013-09-18 15:35:00,
2013-09-18 10:41:00,67.3,66.7,29.79,SW,225,13.0,13.0,98,0.00,,,0.02,meteobridge,2013-09-18 15:41:00,
2013-09-18 10:46:00,67.8,66.9,29.79,SSE,158,6.0,7.6,97,0.00,,,0.02,meteobridge,2013-09-18 15:46:00,
2013-09-18 10:51:00,67.8,66.9,29.79,South,180,13.6,13.6,97,0.00,,,0.02,meteobridge,2013-09-18 15:51:00,
2013-09-18 10:57:00,68.0,66.6,29.78,SSE,158,6.0,9.8,95,0.00,,,0.02,meteobridge,2013-09-18 15:57:00,
2013-09-18 11:03:00,68.4,66.6,29.78,South,180,8.3,8.3,94,0.00,,,0.02,meteobridge,2013-09-18 16:03:00,
2013-09-18 11:08:00,68.5,66.7,29.78,South,180,7.6,13.6,94,0.00,,,0.02,meteobridge,2013-09-18 16:08:00,
2013-09-18 11:14:00,68.7,66.6,29.78,SW,225,10.7,10.7,93,0.00,,,0.02,meteobridge,2013-09-18 16:14:00,
2013-09-18 11:19:00,69.1,66.9,29.77,SSE,158,9.2,11.4,93,0.00,,,0.02,meteobridge,2013-09-18 16:19:00,
2013-09-18 11:25:00,69.3,67.1,29.77,South,180,9.8,11.4,93,0.00,,,0.02,meteobridge,2013-09-18 16:25:00,
2013-09-18 11:31:00,69.8,67.1,29.77,ESE,113,5.4,7.6,91,0.00,,,0.02,meteobridge,2013-09-18 16:31:00,
2013-09-18 11:36:00,70.0,67.3,29.76,South,180,9.8,9.8,91,0.00,,,0.02,meteobridge,2013-09-18 16:36:00,
2013-09-18 11:42:00,70.2,67.1,29.76,South,180,7.6,9.2,90,0.00,,,0.02,meteobridge,2013-09-18 16:42:00,
2013-09-18 11:48:00,70.3,66.9,29.76,NNE,23,7.6,9.2,89,0.00,,,0.02,meteobridge,2013-09-18 16:48:00,
2013-09-18 11:53:00,70.7,67.3,29.76,South,180,14.5,14.5,89,0.00,,,0.02,meteobridge,2013-09-18 16:53:00,
2013-09-18 11:59:00,70.9,67.1,29.76,SE,135,8.3,13.0,88,0.00,,,0.02,meteobridge,2013-09-18 16:59:00,
2013-09-18 12:05:00,71.1,67.3,29.75,SSE,158,9.8,13.6,88,0.00,,,0.02,meteobridge,2013-09-18 17:05:00,
2013-09-18 12:10:00,71.2,67.1,29.75,SSE,158,12.1,12.1,87,0.00,,,0.02,meteobridge,2013-09-18 17:10:00,
2013-09-18 12:15:00,71.4,67.3,29.75,SE,135,9.8,11.4,87,0.00,,,0.02,meteobridge,2013-09-18 17:15:00,
2013-09-18 12:21:00,71.8,67.1,29.75,South,180,13.0,13.0,85,0.00,,,0.02,meteobridge,2013-09-18 17:21:00,
2013-09-18 12:26:00,72.0,67.3,29.75,South,180,12.1,13.0,85,0.00,,,0.02,meteobridge,2013-09-18 17:26:00,
2013-09-18 12:32:00,71.8,67.1,29.75,South,180,11.4,11.4,85,0.01,,,0.04,meteobridge,2013-09-18 17:32:00,
2013-09-18 12:38:00,72.1,67.5,29.74,SE,135,11.4,11.4,85,0.01,,,0.04,meteobridge,2013-09-18 17:38:00,
2013-09-18 12:43:00,72.0,67.3,29.74,SE,135,15.9,15.9,85,0.01,,,0.04,meteobridge,2013-09-18 17:43:00,
2013-09-18 12:49:00,72.0,67.3,29.74,South,180,13.0,13.0,85,0.01,,,0.04,meteobridge,2013-09-18 17:49:00,
2013-09-18 12:55:00,72.0,66.9,29.74,South,180,14.5,14.5,84,0.01,,,0.04,meteobridge,2013-09-18 17:55:00,
2013-09-18 13:00:00,72.0,67.3,29.75,SE,135,12.1,12.1,85,0.01,,,0.04,meteobridge,2013-09-18 18:00:00,
2013-09-18 13:06:00,72.0,67.3,29.74,SE,135,11.4,12.1,85,0.01,,,0.04,meteobridge,2013-09-18 18:06:00,
2013-09-18 13:12:00,72.0,67.3,29.74,South,180,11.4,14.5,85,0.01,,,0.04,meteobridge,2013-09-18 18:12:00,
2013-09-18 13:17:00,72.0,67.3,29.74,SE,135,9.8,12.1,85,0.01,,,0.04,meteobridge,2013-09-18 18:17:00,
2013-09-18 13:22:00,72.1,67.5,29.74,SE,135,12.1,13.0,85,0.01,,,0.04,meteobridge,2013-09-18 18:22:00,
2013-09-18 13:27:00,72.3,67.6,29.73,South,180,15.9,15.9,85,0.01,,,0.04,meteobridge,2013-09-18 18:27:00,
2013-09-18 13:33:00,72.5,67.5,29.73,South,180,12.1,14.5,84,0.00,,,0.04,meteobridge,2013-09-18 18:33:00,
2013-09-18 13:38:00,72.7,67.6,29.73,SSE,158,9.8,12.1,84,0.00,,,0.04,meteobridge,2013-09-18 18:38:00,
2013-09-18 13:43:00,73.0,68.0,29.73,SSW,203,13.0,13.0,84,0.00,,,0.04,meteobridge,2013-09-18 18:43:00,
2013-09-18 13:48:00,73.0,67.6,29.73,SSE,158,15.9,15.9,83,0.00,,,0.04,meteobridge,2013-09-18 18:48:00,
2013-09-18 13:54:00,73.0,67.6,29.72,South,180,14.5,16.8,83,0.00,,,0.04,meteobridge,2013-09-18 18:54:00,
2013-09-18 13:59:00,73.2,67.8,29.72,SE,135,15.2,15.2,83,0.00,,,0.04,meteobridge,2013-09-18 18:59:00,
2013-09-18 14:05:00,73.6,68.4,29.72,WSW,248,13.0,15.2,84,0.00,,,0.04,meteobridge,2013-09-18 19:05:00,
2013-09-18 14:10:00,73.9,68.4,29.72,South,180,15.2,15.2,83,0.00,,,0.04,meteobridge,2013-09-18 19:10:00,
2013-09-18 14:16:00,73.9,68.4,29.72,SSW,203,13.6,13.6,83,0.00,,,0.04,meteobridge,2013-09-18 19:16:00,
2013-09-18 14:21:00,73.9,68.2,29.72,SSE,158,14.5,15.9,82,0.00,,,0.04,meteobridge,2013-09-18 19:21:00,
2013-09-18 14:26:00,73.9,68.2,29.71,South,180,14.5,15.9,82,0.00,,,0.04,meteobridge,2013-09-18 19:26:00,
2013-09-18 14:32:00,73.9,67.8,29.72,South,180,12.1,13.6,81,0.00,,,0.04,meteobridge,2013-09-18 19:32:00,
2013-09-18 14:38:00,73.9,67.8,29.72,South,180,14.5,17.4,81,0.00,,,0.04,meteobridge,2013-09-18 19:38:00,
2013-09-18 14:43:00,73.8,67.6,29.72,SE,135,12.1,15.2,81,0.00,,,0.04,meteobridge,2013-09-18 19:43:00,
2013-09-18 14:48:00,73.6,67.5,29.72,South,180,10.7,12.1,81,0.00,,,0.04,meteobridge,2013-09-18 19:48:00,
2013-09-18 14:54:00,73.6,67.1,29.72,SE,135,15.2,15.2,80,0.00,,,0.04,meteobridge,2013-09-18 19:54:00,
2013-09-18 14:59:00,73.6,67.1,29.72,South,180,11.4,14.5,80,0.00,,,0.04,meteobridge,2013-09-18 19:59:00,
2013-09-18 15:05:00,73.6,67.1,29.71,SE,135,15.9,24.4,80,0.00,,,0.04,meteobridge,2013-09-18 20:05:00,
2013-09-18 15:11:00,73.6,67.1,29.71,South,180,11.4,13.6,80,0.00,,,0.04,meteobridge,2013-09-18 20:11:00,
2013-09-18 15:16:00,73.6,67.1,29.71,South,180,13.6,17.4,80,0.00,,,0.04,meteobridge,2013-09-18 20:16:00,
2013-09-18 15:22:00,73.4,67.3,29.71,South,180,14.5,14.5,81,0.00,,,0.04,meteobridge,2013-09-18 20:22:00,
2013-09-18 15:28:00,73.4,67.3,29.71,South,180,15.9,15.9,81,0.00,,,0.04,meteobridge,2013-09-18 20:28:00,
2013-09-18 15:33:00,73.6,67.5,29.70,SE,135,13.0,13.0,81,0.00,,,0.04,meteobridge,2013-09-18 20:33:00,
2013-09-18 15:39:00,73.6,67.5,29.70,SE,135,15.2,15.2,81,0.00,,,0.04,meteobridge,2013-09-18 20:39:00,
2013-09-18 15:44:00,73.8,67.6,29.70,South,180,12.1,15.9,81,0.00,,,0.04,meteobridge,2013-09-18 20:44:00,
2013-09-18 15:50:00,73.8,67.6,29.70,South,180,11.4,15.9,81,0.00,,,0.04,meteobridge,2013-09-18 20:50:00,
2013-09-18 15:55:00,73.9,67.8,29.70,South,180,12.1,13.0,81,0.00,,,0.04,meteobridge,2013-09-18 20:55:00,
2013-09-18 16:01:00,74.1,68.0,29.70,South,180,16.8,16.8,81,0.00,,,0.04,meteobridge,2013-09-18 21:01:00,
2013-09-18 16:06:00,74.5,68.2,29.70,SE,135,9.8,10.7,81,0.00,,,0.04,meteobridge,2013-09-18 21:06:00,
2013-09-18 16:11:00,74.5,67.8,29.70,North,0,16.8,22.1,80,0.00,,,0.04,meteobridge,2013-09-18 21:11:00,
2013-09-18 16:17:00,74.7,68.0,29.70,South,180,17.4,17.4,80,0.00,,,0.04,meteobridge,2013-09-18 21:17:00,
2013-09-18 16:23:00,74.7,68.0,29.70,SE,135,13.0,15.2,80,0.00,,,0.04,meteobridge,2013-09-18 21:23:00,
2013-09-18 16:28:00,74.8,68.2,29.70,South,180,9.8,13.0,80,0.00,,,0.04,meteobridge,2013-09-18 21:28:00,
2013-09-18 16:33:00,74.8,68.2,29.70,South,180,15.9,15.9,80,0.00,,,0.04,meteobridge,2013-09-18 21:33:00,
2013-09-18 16:39:00,74.8,68.2,29.70,South,180,16.8,16.8,80,0.00,,,0.04,meteobridge,2013-09-18 21:39:00,
2013-09-18 16:44:00,74.7,68.4,29.70,SE,135,13.0,13.0,81,0.00,,,0.04,meteobridge,2013-09-18 21:44:00,
2013-09-18 16:50:00,74.7,68.7,29.69,South,180,10.7,11.4,82,0.00,,,0.04,meteobridge,2013-09-18 21:50:00,
2013-09-18 16:56:00,74.7,68.4,29.69,South,180,12.1,13.0,81,0.00,,,0.04,meteobridge,2013-09-18 21:56:00,
2013-09-18 17:01:00,75.2,68.5,29.69,South,180,9.8,10.7,80,0.00,,,0.04,meteobridge,2013-09-18 22:01:00,
2013-09-18 17:07:00,75.0,68.7,29.69,SE,135,9.2,9.2,81,0.00,,,0.04,meteobridge,2013-09-18 22:07:00,
2013-09-18 17:12:00,74.7,68.4,29.70,SE,135,7.6,8.3,81,0.00,,,0.04,meteobridge,2013-09-18 22:12:00,
2013-09-18 17:18:00,74.5,68.5,29.69,SE,135,8.3,8.3,82,0.00,,,0.04,meteobridge,2013-09-18 22:18:00,
2013-09-18 17:23:00,74.7,68.7,29.69,SSE,158,9.8,9.8,82,0.00,,,0.04,meteobridge,2013-09-18 22:23:00,
2013-09-18 17:28:00,74.8,68.9,29.69,SSE,158,9.8,9.8,82,0.00,,,0.04,meteobridge,2013-09-18 22:28:00,
2013-09-18 17:34:00,75.2,68.5,29.69,South,180,5.4,6.0,80,0.00,,,0.04,meteobridge,2013-09-18 22:34:00,
2013-09-18 17:39:00,76.1,69.4,29.69,SE,135,6.9,7.6,80,0.00,,,0.04,meteobridge,2013-09-18 22:39:00,
2013-09-18 17:45:00,76.3,69.3,29.69,SE,135,8.3,8.3,79,0.00,,,0.04,meteobridge,2013-09-18 22:45:00,
2013-09-18 17:51:00,77.0,68.9,29.69,SE,135,10.7,10.7,76,0.00,,,0.04,meteobridge,2013-09-18 22:51:00,
2013-09-18 17:56:00,77.2,69.1,29.68,SSE,158,11.4,11.4,76,0.00,,,0.04,meteobridge,2013-09-18 22:56:00,
2013-09-18 18:02:00,76.6,69.3,29.68,SE,135,11.4,11.4,78,0.00,,,0.04,meteobridge,2013-09-18 23:02:00,
2013-09-18 18:08:00,76.1,69.1,29.68,SE,135,9.8,12.1,79,0.00,,,0.04,meteobridge,2013-09-18 23:08:00,
2013-09-18 18:13:00,75.9,69.3,29.68,SE,135,11.4,11.4,80,0.00,,,0.04,meteobridge,2013-09-18 23:13:00,
2013-09-18 18:18:00,75.2,68.5,29.69,SE,135,9.2,13.0,80,0.00,,,0.04,meteobridge,2013-09-18 23:18:00,
2013-09-18 18:24:00,74.3,68.7,29.68,ESE,113,7.6,10.7,83,0.00,,,0.04,meteobridge,2013-09-18 23:24:00,
2013-09-18 18:29:00,73.6,68.7,29.68,SE,135,8.3,9.8,85,0.00,,,0.04,meteobridge,2013-09-18 23:29:00,
2013-09-18 18:35:00,73.2,68.2,29.68,SE,135,8.3,9.2,84,0.00,,,0.04,meteobridge,2013-09-18 23:35:00,
2013-09-18 18:41:00,72.9,67.8,29.69,SE,135,7.6,7.6,84,0.00,,,0.04,meteobridge,2013-09-18 23:41:00,
2013-09-18 18:46:00,72.9,68.0,29.68,SE,135,5.4,9.8,85,0.00,,,0.04,meteobridge,2013-09-18 23:46:00,
2013-09-18 18:52:00,73.2,68.2,29.68,SE,135,9.2,9.2,84,0.00,,,0.04,meteobridge,2013-09-18 23:52:00,
2013-09-18 18:58:00,72.9,67.8,29.68,East,90,7.6,10.7,84,0.00,,,0.04,meteobridge,2013-09-18 23:58:00,
2013-09-18 19:03:00,72.5,67.8,29.67,South,180,6.9,9.8,85,0.00,,,0.04,meteobridge,2013-09-19 00:03:00,
2013-09-18 19:09:00,72.1,67.6,29.67,SE,135,7.6,8.3,86,0.00,,,0.04,meteobridge,2013-09-19 00:09:00,
2013-09-18 19:15:00,71.8,67.3,29.68,SE,135,8.3,8.3,86,0.00,,,0.04,meteobridge,2013-09-19 00:15:00,
2013-09-18 19:20:00,71.6,67.5,29.68,ESE,113,8.3,8.3,87,0.00,,,0.04,meteobridge,2013-09-19 00:20:00,
2013-09-18 19:26:00,71.2,67.5,29.68,SE,135,8.3,10.7,88,0.00,,,0.04,meteobridge,2013-09-19 00:26:00,
2013-09-18 19:31:00,71.1,67.6,29.68,SE,135,11.4,11.4,89,0.00,,,0.04,meteobridge,2013-09-19 00:31:00,
2013-09-18 19:37:00,70.9,67.5,29.68,ESE,113,9.8,9.8,89,0.00,,,0.04,meteobridge,2013-09-19 00:37:00,
2013-09-18 19:43:00,70.5,67.5,29.68,SE,135,10.7,10.7,90,0.00,,,0.04,meteobridge,2013-09-19 00:43:00,
2013-09-18 19:48:00,70.5,67.5,29.67,SE,135,10.7,10.7,90,0.00,,,0.04,meteobridge,2013-09-19 00:48:00,
2013-09-18 19:54:00,70.3,67.6,29.68,SE,135,9.8,9.8,91,0.00,,,0.04,meteobridge,2013-09-19 00:54:00,
2013-09-18 20:00:00,70.2,67.5,29.68,SE,135,9.2,9.2,91,0.00,,,0.04,meteobridge,2013-09-19 01:00:00,
2013-09-18 20:05:00,70.0,67.5,29.68,SE,135,12.1,12.1,92,0.00,,,0.04,meteobridge,2013-09-19 01:05:00,
2013-09-18 20:11:00,70.0,67.5,29.68,SE,135,10.7,10.7,92,0.00,,,0.04,meteobridge,2013-09-19 01:11:00,
2013-09-18 20:17:00,70.0,67.5,29.68,SE,135,8.3,9.2,92,0.00,,,0.04,meteobridge,2013-09-19 01:17:00,
2013-09-18 20:22:00,69.8,67.3,29.68,South,180,6.9,7.6,92,0.00,,,0.04,meteobridge,2013-09-19 01:22:00,
2013-09-18 20:28:00,69.8,67.3,29.68,East,90,7.6,9.8,92,0.00,,,0.04,meteobridge,2013-09-19 01:28:00,
2013-09-18 20:33:00,69.8,67.6,29.68,SE,135,6.9,8.3,93,0.00,,,0.04,meteobridge,2013-09-19 01:33:00,
2013-09-18 20:39:00,69.6,67.8,29.68,South,180,7.6,9.2,94,0.00,,,0.04,meteobridge,2013-09-19 01:39:00,
2013-09-18 20:44:00,69.6,67.8,29.68,SE,135,8.3,9.2,94,0.00,,,0.04,meteobridge,2013-09-19 01:44:00,
2013-09-18 20:50:00,69.8,67.6,29.68,SE,135,10.7,10.7,93,0.00,,,0.04,meteobridge,2013-09-19 01:50:00,
2013-09-18 20:55:00,69.8,67.6,29.68,SE,135,10.7,13.0,93,0.00,,,0.04,meteobridge,2013-09-19 01:55:00,
2013-09-18 21:01:00,70.0,67.8,29.69,SSE,158,7.6,9.2,93,0.00,,,0.04,meteobridge,2013-09-19 02:01:00,
2013-09-18 21:07:00,70.0,67.8,29.69,SE,135,8.3,10.7,93,0.00,,,0.04,meteobridge,2013-09-19 02:07:00,
2013-09-18 21:12:00,70.0,67.8,29.69,SE,135,11.4,11.4,93,0.00,,,0.04,meteobridge,2013-09-19 02:12:00,
2013-09-18 21:17:00,70.2,68.0,29.68,SSE,158,6.9,9.2,93,0.00,,,0.04,meteobridge,2013-09-19 02:17:00,
2013-09-18 21:23:00,70.2,68.0,29.69,SE,135,13.6,13.6,93,0.00,,,0.04,meteobridge,2013-09-19 02:23:00,
2013-09-18 21:28:00,70.2,68.0,29.68,SE,135,11.4,11.4,93,0.00,,,0.04,meteobridge,2013-09-19 02:28:00,
2013-09-18 21:33:00,70.2,68.0,29.69,SE,135,10.7,10.7,93,0.00,,,0.04,meteobridge,2013-09-19 02:33:00,
2013-09-18 21:39:00,70.2,68.0,29.69,SE,135,11.4,11.4,93,0.00,,,0.04,meteobridge,2013-09-19 02:39:00,
2013-09-18 21:44:00,70.2,68.0,29.69,SE,135,7.6,9.8,93,0.00,,,0.04,meteobridge,2013-09-19 02:44:00,
2013-09-18 21:50:00,70.2,68.0,29.69,SE,135,9.2,11.4,93,0.00,,,0.04,meteobridge,2013-09-19 02:50:00,
2013-09-18 21:55:00,70.2,68.0,29.69,SE,135,8.3,9.8,93,0.00,,,0.04,meteobridge,2013-09-19 02:55:00,
2013-09-18 22:00:00,70.2,68.0,29.69,SE,135,10.7,10.7,93,0.00,,,0.04,meteobridge,2013-09-19 03:00:00,
2013-09-18 22:06:00,70.0,68.2,29.69,SE,135,6.9,9.2,94,0.00,,,0.04,meteobridge,2013-09-19 03:06:00,
2013-09-18 22:12:00,70.0,68.2,29.68,ESE,113,7.6,9.8,94,0.00,,,0.04,meteobridge,2013-09-19 03:12:00,
2013-09-18 22:17:00,70.2,68.4,29.68,South,180,8.3,10.7,94,0.00,,,0.04,meteobridge,2013-09-19 03:17:00,
2013-09-18 22:23:00,70.3,68.5,29.68,SE,135,8.3,10.7,94,0.00,,,0.04,meteobridge,2013-09-19 03:23:00,
2013-09-18 22:28:00,70.9,69.1,29.67,SE,135,12.1,14.5,94,0.00,,,0.04,meteobridge,2013-09-19 03:28:00,
2013-09-18 22:35:00,70.9,68.7,29.67,SE,135,9.2,9.2,93,0.00,,,0.04,meteobridge,2013-09-19 03:35:00,
2013-09-18 22:40:00,70.9,68.7,29.67,SSE,158,14.5,15.2,93,0.00,,,0.04,meteobridge,2013-09-19 03:40:00,
2013-09-18 22:46:00,70.9,68.7,29.67,SSW,203,9.2,13.0,93,0.00,,,0.04,meteobridge,2013-09-19 03:46:00,
2013-09-18 22:52:00,71.1,68.9,29.67,SE,135,9.2,9.2,93,0.00,,,0.04,meteobridge,2013-09-19 03:52:00,
2013-09-18 22:57:00,71.1,68.9,29.67,SSE,158,10.7,10.7,93,0.00,,,0.04,meteobridge,2013-09-19 03:57:00,
2013-09-18 23:01:00,71.2,69.1,29.67,SSE,158,13.0,13.0,93,0.00,,,0.04,meteobridge,2013-09-19 04:01:00,
2013-09-18 23:02:00,71.2,69.1,29.67,SSE,158,13.0,13.0,93,0.00,,,0.04,meteobridge,2013-09-19 04:02:00,
2013-09-18 23:04:00,71.2,69.1,29.67,SSE,158,13.0,13.0,93,0.00,,,0.04,meteobridge,2013-09-19 04:04:00,
2013-09-18 23:06:00,71.4,69.3,29.67,South,180,7.6,10.7,93,0.00,,,0.04,meteobridge,2013-09-19 04:06:00,
2013-09-18 23:08:00,71.4,69.3,29.67,SE,135,6.0,7.6,93,0.00,,,0.04,meteobridge,2013-09-19 04:08:00,
2013-09-18 23:13:00,71.2,69.1,29.68,South,180,6.0,7.6,93,0.00,,,0.04,meteobridge,2013-09-19 04:13:00,
2013-09-18 23:19:00,71.1,68.9,29.68,SSE,158,6.0,6.9,93,0.00,,,0.04,meteobridge,2013-09-19 04:19:00,
2013-09-18 23:25:00,70.9,68.7,29.68,SE,135,6.0,8.3,93,0.00,,,0.04,meteobridge,2013-09-19 04:25:00,
2013-09-18 23:30:00,70.7,68.5,29.67,SE,135,6.9,6.9,93,0.00,,,0.04,meteobridge,2013-09-19 04:30:00,
2013-09-18 23:36:00,70.7,68.5,29.67,SE,135,5.4,5.4,93,0.00,,,0.04,meteobridge,2013-09-19 04:36:00,
2013-09-18 23:42:00,70.5,68.4,29.68,SE,135,3.8,5.4,93,0.00,,,0.04,meteobridge,2013-09-19 04:42:00,
2013-09-18 23:47:00,70.3,68.5,29.68,SSE,158,5.4,5.4,94,0.00,,,0.04,meteobridge,2013-09-19 04:47:00,
2013-09-18 23:53:00,70.3,68.5,29.67,SSE,158,5.4,6.9,94,0.00,,,0.04,meteobridge,2013-09-19 04:53:00,
2013-09-18 23:59:00,70.2,68.4,29.67,SE,135,5.4,5.4,94,0.00,,,0.04,meteobridge,2013-09-19 04:59:00,